SCP
0 0 0 0 0 0 0 0 0 0 0 0 0 0 0 0 0 0 0 0 0 0 0 0 0 0 0 -0 -0 -0 -0 0 0 0 0 0 0 0 0 0 0 0 0 0
0 0 0 0 0 0 0 0 0 0 0 -0 -0 0 0 0 0 0 0 0 0 0 0 0 0 0 0 0 0 -0 -0 -0 0 0 0 0 0 0 0 0 0 0 0 0
0 0 0 0 0 0 0 0 0 0 0 0 0 0 0 0 0 0 0 0 0 0 0 0 0 0 0 0 0 0 0 -0 -0 0 0 0 0 0 0 0 0 0 0 0
0 0 0 0 0 0 0 0 0 0 0 0 0 0 0 0 0 0 0 0 0 0 0 0 0 0 0 0 0 0 0 0 0 0 0 0 0 0 0 0 0 0 0 0
0 0 0 0 0 0 0 0 0 0 0 0 0 0 0 0 0 0 0 0 0 0 0 0 0 0 0 0 0 0 0 0 0 0 0 0 0 0 0 0 0 0 0 0
0 0 0 0 0 0 0 0 0 0 0 0 0 0 0 0 0 0 0 0 0 0 0 0 0 0 0 0 0 0 0 0 0 0 0 0 0 0 0 0 0 0 0 0
0 0 0 0 0 0 0 0 0 0 0 0 0 0 0 0 0 0 0 0 0 0 0 0 0 0 0 0 0 0 0 0 0 0 0 0 0 0 0 0 0 0 0 0
0 0 0 0 0 0 0 0 0 -0 0 0 0 0 0 0 0 0 0 0 0 0 0 0 0 0 0 0 0 0 0 0 0 0 0 0 0 0 0 0 0 0 0 -0
0 0 0 0 0 0 0 0 0 0 0 0 0 0 0 0 0 0 0 0 0 0 0 0 0 0 0 0 0 0 0 0 0 0 0 0 0 0 0 0 0 0 0 0
0 0 0 0 0 0 0 0 0 0 0 0 0 0 0 0 0 0 0 0 0 0 0 0 0 0 0 0 0 0 0 0 0 0 0 0 0 0 0 0 0 0 -0 0
0 0 0 0 0 0 0 0 0 0 0 0 0 0 0 0 0 0 0 0 -0 0 0 0 0 0 0 0 0 0 0 0 0 0 0 0 0 0 0 0 0 -0 -0 -0
0 0 0 0 0 0 0 0 0 0 0 0 0 0 0 0 0 0 0 0 0 0 0 0 0 0 0 0 0 0 0 0 0 0 0 0 0 0 0 -0 -0 -0 -0 -0
0 0 0 0 0 0 0 0 0 0 0 0 0 0 0 0 0 0 0 0 0 0 0 0 0 0 0 0 0 0 0 0 0 0 0 0 0 0 0 0 -0 -0 -0 -0
0 0 0 0 0 0 0 0 0 0 0 0 0 0 0 0 0 0 0 0 0 0 0 0 0 0 0 0 0 0 0 0 0 0 0 0 0 0 0 0 0 0 0 0
0 0 -0 0 0 0 0 0 0 0 0 0 0 0 0 -0 -0 0 -0 0 0 0 0 0 0 -0 -0 -0 -0 0 0 0 0 0 0 0 0 0 0 0 0 0 0 0
0 0 0 0 0 0 0 0 0 0 -0 0 0 0 0 0 -0 0 0 0 0 0 0 0 0 -0 -0 -0 0 0 0 0 0 0 0 0 0 0 0 0 0 0 0 0
0 -0 0 0 0 0 0 0 -0 0 0 0 0 -0 -0 -0 -0 0 0 0 0 -0 -0 0 0 0 0 0 0 0 0 0 0 0 0 0 0 0 0 0 0 0 0 0
-0 -0 0 0 0 0 -0 -0 0 0 0 0 -0 -0 -0 0 0 0 0 0 0 0 -0 -0 0 0 0 0 0 0 0 0 0 0 0 0 0 0 0 0 0 0 0 0
0 0 -0 0 0 0 -0 0 -0 -0 0 -0 -0 0 0 0 0 0 0 0 0 0 -0 0 0 0 0 0 0 0 0 0 0 0 0 0 0 0 0 0 0 0 0 0
0 0 0 -0 0 0 -0 -0 -0 0 0 0 0 0 0 -0 0 0 0 0 0 0 0 0 0 0 0 0 0 0 0 0 0 0 0 0 0 0 0 0 0 0 0 0
-0 -0 -0 -0 0 0 -0 -0 -0 -0 0 0 0 0 0 0 0 0 0 0 -0 0 0 0 0 0 0 0 0 0 0 0 0 0 0 0 0 0 0 0 0 0 0 0
-0 -0 -0 0 0 0 0 -0 -0 -0 -0 0 0 0 0 0 -0 0 0 0 0 0 0 0 0 0 0 0 0 0 0 0 0 0 0 0 0 0 0 0 0 0 0 0
-0 -0 -0 -0 0 0 0 -0 -0 0 0 0 -0 0 0 -0 0 0 0 0 0 0 0 0 0 0 0 0 0 0 0 0 0 0 0 0 0 0 0 0 0 0 0 0
-0 -0 -0 -0 0 0 -0 0 0 0 0 0 0 -0 0 0 0 0 0 0 0 0 0 0 0 0 0 0 0 0 0 0 0 0 0 0 0 0 0 0 0 0 0 0
0 0 0 -0 0 0 0 0 0 0 0 0 0 0 0 0 0 0 0 0 0 0 0 0 0 0 0 0 0 0 0 0 0 0 0 0 0 0 0 0 0 0 0 0
-0 -0 -0 -0 -0 0 0 0 0 0 0 0 0 0 0 0 0 0 0 0 0 0 0 0 0 0 0 0 0 0 0 0 0 0 0 0 0 0 0 0 0 0 0 0
-0 -0 0 0 0 0 0 0 0 0 0 0 0 0 0 0 0 0 0 0 0 0 0 0 0 0 0 0 0 0 0 0 0 0 0 0 0 0 0 0 0 0 0 0
Wind_Speed_500mb
13 19 12 29 31 19 23 30 13 39 15 39 36 19 41 53 30 34 36 38 43 47 52 55 58 58 50 42 36 33 28 23 18 9 6 9 12 15 12 8 11 14 15 22
11 15 18 17 34 31 37 31 31 43 49 52 69 47 23 26 24 31 29 33 39 39 43 48 51 55 52 41 35 32 28 26 19 11 7 5 5 6 7 10 10 10 13 14
11 7 13 16 18 13 11 10 14 13 30 4 9 11 23 18 19 26 22 28 35 35 41 41 44 48 51 43 34 31 30 27 22 16 9 8 9 13 12 10 16 19 17 12
8 10 4 13 8 13 19 15 31 15 18 19 22 23 34 31 25 18 14 20 28 31 32 34 35 41 46 46 43 38 36 33 30 27 24 21 20 21 25 28 33 37 40 40
2 5 17 19 5 12 13 15 24 28 31 17 20 15 26 7 12 8 9 18 26 32 31 28 26 31 41 47 49 48 45 43 42 39 36 34 37 38 40 45 50 53 58 62
5 4 11 10 2 3 5 11 13 28 18 12 12 3 8 9 8 4 6 12 21 27 29 26 24 22 27 37 48 51 50 47 43 46 50 53 54 55 56 58 63 63 69 65
16 9 19 28 17 5 10 12 14 21 17 26 11 14 5 10 12 6 5 10 18 24 27 27 23 20 21 25 35 40 41 43 44 49 51 51 53 56 59 61 61 59 59 57
6 6 19 29 13 17 12 8 11 15 21 32 27 17 16 15 17 11 7 8 16 21 26 25 23 19 19 19 25 29 28 34 38 39 40 41 44 42 43 45 49 50 47 46
23 19 12 44 24 42 31 18 16 13 20 29 31 33 24 23 24 16 11 8 11 16 21 21 20 19 17 17 18 21 20 21 24 26 27 29 31 35 35 35 38 39 37 36
4 24 44 61 70 69 55 54 48 42 33 32 40 33 32 28 29 23 16 10 8 12 13 16 16 17 17 18 17 15 16 17 18 20 22 23 25 28 30 31 31 32 31 30
16 42 49 75 73 79 76 71 68 65 64 51 43 43 36 33 33 27 21 15 8 8 10 11 13 15 17 18 19 16 14 17 23 24 24 25 31 34 33 33 28 27 30 26
20 65 34 43 61 53 52 47 38 50 46 51 53 49 40 37 31 29 23 18 13 8 4 5 10 14 16 17 19 18 16 17 20 22 24 25 27 28 31 32 32 32 29 25
67 92 71 70 71 70 61 60 57 49 49 45 48 52 46 41 34 33 30 25 18 13 9 3 2 7 11 13 14 15 14 17 19 21 21 21 21 22 24 25 25 25 25 24
80 88 67 82 69 65 48 41 41 45 43 36 37 51 51 47 40 38 32 22 24 18 15 10 5 2 6 6 7 9 11 14 15 16 18 21 22 23 24 25 26 27 28 29
88 83 97 91 85 79 66 55 58 55 43 40 39 58 55 56 50 39 29 32 27 24 22 18 13 7 3 1 2 5 8 10 11 13 15 16 16 15 15 13 12 11 12 12
63 57 62 69 69 68 64 54 60 59 53 50 53 61 66 55 46 38 37 37 33 22 19 22 19 15 10 6 3 3 4 4 4 4 4 4 4 3 3 4 4 4 5 6
62 67 60 64 62 63 65 58 56 57 55 57 54 56 67 57 54 52 46 41 34 28 26 23 19 21 18 15 13 14 14 12 10 9 7 7 7 7 7 7 7 7 7 7
62 63 60 60 56 43 37 35 43 51 55 46 42 50 67 67 67 60 51 45 40 36 31 26 26 24 25 26 26 25 22 17 16 16 16 14 13 12 11 11 9 8 9 9
44 46 50 49 40 40 43 29 24 38 43 42 43 60 69 66 61 54 50 48 45 41 33 30 29 29 29 32 33 30 26 24 24 23 22 20 19 18 17 16 14 13 13 13
29 35 37 34 35 42 49 48 33 24 30 40 37 55 68 65 59 54 52 54 45 34 27 31 33 32 34 35 34 34 34 32 30 28 25 24 23 22 21 19 18 17 16 17
23 26 32 35 35 40 49 55 60 53 35 46 49 53 59 60 57 55 58 57 45 41 39 40 38 36 36 34 34 36 36 36 33 31 29 27 26 25 24 23 21 20 19 19
29 26 27 33 36 27 36 49 56 55 49 48 52 51 51 52 57 59 58 55 44 46 46 45 43 41 38 36 35 36 36 36 34 32 29 28 27 26 25 23 20 20 20 21
39 39 37 33 33 27 31 42 52 57 51 50 57 52 53 54 55 59 62 56 54 52 51 49 46 44 40 36 36 35 34 33 31 29 28 27 26 25 23 21 21 21 22 23
47 43 39 34 34 28 29 33 51 56 45 44 48 50 48 50 56 60 60 57 54 51 52 50 46 42 39 38 36 33 30 29 28 26 26 26 24 22 20 21 22 23 24 24
37 32 30 29 25 21 23 34 50 58 47 43 48 56 59 55 53 52 55 56 55 50 46 45 41 39 39 35 30 27 25 24 24 24 22 21 19 19 20 22 24 24 23 23
28 26 25 24 21 18 19 33 45 51 46 41 45 47 44 42 41 44 46 47 44 40 36 32 32 33 29 25 24 22 21 20 19 18 18 18 20 21 23 23 21 21 22 25
28 25 22 19 18 14 13 23 36 42 38 32 29 31 33 33 34 34 33 31 28 27 28 27 24 22 22 21 18 16 15 16 17 17 18 20 21 20 19 18 19 22 23 25
Wind_Direction_500mb
253 253 220 255 254 206 204 218 196 268 222 267 281 292 295 301 302 318 350 354 350 351 349 1 3 6 7 5 4 2 3 356 345 332 281 234 225 232 230 245 240 231 262 252
284 255 246 256 253 226 224 241 252 257 276 274 280 282 265 283 296 311 351 354 352 353 349 4 6 12 15 11 16 17 18 19 10 354 338 254 215 232 186 188 233 213 222 236
265 348 313 289 238 173 186 210 160 172 232 293 283 262 262 298 288 309 349 355 352 357 357 3 14 16 24 23 28 35 42 48 48 44 51 90 116 127 133 159 161 151 150 161
267 358 294 248 190 178 196 215 211 267 265 235 249 281 286 286 283 297 340 357 348 4 13 6 15 26 32 33 42 49 58 64 72 79 89 101 116 124 131 138 136 126 125 128
233 220 299 288 178 159 175 279 206 220 251 270 277 292 294 236 226 284 337 359 352 6 14 13 16 22 36 43 48 54 61 72 80 89 94 100 105 111 116 122 117 111 109 110
83 179 243 254 234 147 123 291 202 189 231 202 161 29 260 203 185 232 328 2 358 7 15 20 23 30 39 45 54 56 61 70 82 89 98 102 106 108 108 107 104 103 99 96
215 247 279 253 236 152 87 245 173 196 211 178 191 211 217 212 195 206 297 347 1 7 18 28 32 32 44 52 59 64 67 71 77 86 90 92 96 98 98 98 97 97 102 101
139 206 274 189 113 176 224 230 222 212 220 216 232 227 224 227 211 210 251 326 358 6 15 25 33 40 47 55 67 73 73 79 79 77 84 93 93 94 95 98 101 100 99 101
187 215 242 196 218 225 214 231 253 256 262 244 237 233 230 233 220 215 238 282 341 360 9 21 32 41 52 61 68 75 81 78 79 83 82 83 89 97 99 98 96 97 96 93
85 250 243 251 248 252 252 253 259 267 267 250 244 243 234 235 229 217 232 257 310 339 6 14 30 45 52 64 68 64 63 66 75 80 84 88 86 87 87 83 84 88 87 84
261 275 275 264 256 268 273 268 264 265 260 254 249 242 234 230 231 221 225 243 268 313 343 14 36 46 53 59 64 74 81 86 96 93 88 89 90 86 85 85 84 85 84 78
248 261 248 263 278 278 277 282 273 261 258 252 241 241 233 228 226 220 226 231 239 246 269 2 29 42 46 52 59 62 60 64 68 74 85 84 79 79 73 68 65 65 68 64
247 262 268 272 276 280 274 275 273 264 270 253 238 234 227 228 224 218 222 233 232 225 226 219 61 68 61 56 57 55 52 57 53 52 57 67 75 73 69 69 67 64 59 58
262 261 268 266 266 278 273 277 267 260 252 239 236 227 229 224 220 219 221 222 224 220 220 218 232 155 91 75 81 86 75 66 60 53 49 47 45 46 47 44 39 35 32 29
262 260 263 270 272 273 269 265 260 252 239 237 234 219 226 223 222 221 211 219 223 221 221 219 223 225 199 147 67 53 48 44 39 36 32 29 29 33 35 38 39 38 31 19
281 275 271 265 270 271 267 254 248 246 241 241 235 223 218 221 224 224 218 224 228 228 228 224 224 230 235 242 270 304 293 302 340 351 346 344 343 360 20 30 30 21 14 15
275 277 271 266 270 271 265 263 250 242 239 239 240 230 216 215 216 221 221 225 228 226 233 232 228 236 241 247 253 256 261 268 277 281 276 282 291 304 329 338 340 333 336 347
276 277 276 280 279 270 266 267 242 229 231 238 241 226 210 213 215 217 219 224 229 232 236 238 240 243 244 245 247 250 258 268 279 284 285 283 285 290 293 293 294 296 310 318
275 270 285 281 269 250 245 253 243 230 226 229 232 212 209 216 219 219 221 227 232 237 236 240 245 247 249 250 254 259 264 269 271 274 276 280 282 281 280 281 285 290 292 290
284 281 284 282 266 246 234 229 230 229 228 223 218 212 213 217 219 221 224 230 237 247 248 245 247 251 254 257 261 262 261 260 263 264 266 269 271 271 274 275 275 273 276 279
315 310 304 283 284 249 239 231 231 234 235 222 215 215 218 219 221 223 226 232 233 237 239 243 249 252 255 258 260 259 258 257 259 262 265 268 270 270 269 267 267 269 270 273
317 319 319 306 302 258 236 231 223 222 224 222 216 217 220 223 223 227 232 239 243 242 243 245 248 251 253 254 254 254 253 253 255 258 261 263 264 263 263 263 263 266 271 273
312 314 312 310 300 268 230 226 213 211 218 216 213 217 221 225 227 228 232 235 238 242 245 246 246 248 250 251 250 249 248 251 254 256 259 261 260 259 258 260 266 272 273 273
307 304 304 307 308 276 246 230 215 209 216 213 213 217 223 225 226 229 232 235 239 240 245 247 247 246 245 245 244 245 248 250 253 255 254 254 255 258 261 264 267 268 270 269
310 307 308 311 312 290 254 218 211 209 212 214 210 210 215 219 224 230 235 238 239 240 241 241 240 240 239 238 238 241 243 245 247 249 253 255 254 255 258 263 267 270 270 268
320 318 314 311 309 299 269 221 208 207 211 213 214 215 218 223 227 230 232 232 233 235 236 239 235 232 228 227 227 230 235 242 249 250 246 244 248 256 263 270 271 267 263 264
331 328 324 320 318 305 268 218 202 202 204 209 217 218 218 219 221 222 224 225 226 224 221 218 213 208 206 207 210 216 223 227 228 232 239 250 261 269 270 264 259 261 266 272
Wind_Speed_850mb
13 19 12 29 31 19 23 30 13 39 15 39 36 19 41 53 30 34 36 38 43 47 52 55 58 58 50 42 36 33 28 23 18 9 6 9 12 15 12 8 11 14 15 22
11 15 18 17 34 31 37 31 31 43 49 52 69 47 23 26 24 31 29 33 39 39 43 48 51 55 52 41 35 32 28 26 19 11 7 5 5 6 7 10 10 10 13 14
11 7 13 16 18 13 11 10 14 13 30 4 9 11 23 18 19 26 22 28 35 35 41 41 44 48 51 43 34 31 30 27 22 16 9 8 9 13 12 10 16 19 17 12
8 10 4 13 8 13 19 15 31 15 18 19 22 23 34 31 25 18 14 20 28 31 32 34 35 41 46 46 43 38 36 33 30 27 24 21 20 21 25 28 33 37 40 40
2 5 17 19 5 12 13 15 24 28 31 17 20 15 26 7 12 8 9 18 26 32 31 28 26 31 41 47 49 48 45 43 42 39 36 34 37 38 40 45 50 53 58 62
5 4 11 10 2 3 5 11 13 28 18 12 12 3 8 9 8 4 6 12 21 27 29 26 24 22 27 37 48 51 50 47 43 46 50 53 54 55 56 58 63 63 69 65
16 9 19 28 17 5 10 12 14 21 17 26 11 14 5 10 12 6 5 10 18 24 27 27 23 20 21 25 35 40 41 43 44 49 51 51 53 56 59 61 61 59 59 57
6 6 19 29 13 17 12 8 11 15 21 32 27 17 16 15 17 11 7 8 16 21 26 25 23 19 19 19 25 29 28 34 38 39 40 41 44 42 43 45 49 50 47 46
23 19 12 44 24 42 31 18 16 13 20 29 31 33 24 23 24 16 11 8 11 16 21 21 20 19 17 17 18 21 20 21 24 26 27 29 31 35 35 35 38 39 37 36
4 24 44 61 70 69 55 54 48 42 33 32 40 33 32 28 29 23 16 10 8 12 13 16 16 17 17 18 17 15 16 17 18 20 22 23 25 28 30 31 31 32 31 30
16 42 49 75 73 79 76 71 68 65 64 51 43 43 36 33 33 27 21 15 8 8 10 11 13 15 17 18 19 16 14 17 23 24 24 25 31 34 33 33 28 27 30 26
20 65 34 43 61 53 52 47 38 50 46 51 53 49 40 37 31 29 23 18 13 8 4 5 10 14 16 17 19 18 16 17 20 22 24 25 27 28 31 32 32 32 29 25
67 92 71 70 71 70 61 60 57 49 49 45 48 52 46 41 34 33 30 25 18 13 9 3 2 7 11 13 14 15 14 17 19 21 21 21 21 22 24 25 25 25 25 24
80 88 67 82 69 65 48 41 41 45 43 36 37 51 51 47 40 38 32 22 24 18 15 10 5 2 6 6 7 9 11 14 15 16 18 21 22 23 24 25 26 27 28 29
88 83 97 91 85 79 66 55 58 55 43 40 39 58 55 56 50 39 29 32 27 24 22 18 13 7 3 1 2 5 8 10 11 13 15 16 16 15 15 13 12 11 12 12
63 57 62 69 69 68 64 54 60 59 53 50 53 61 66 55 46 38 37 37 33 22 19 22 19 15 10 6 3 3 4 4 4 4 4 4 4 3 3 4 4 4 5 6
62 67 60 64 62 63 65 58 56 57 55 57 54 56 67 57 54 52 46 41 34 28 26 23 19 21 18 15 13 14 14 12 10 9 7 7 7 7 7 7 7 7 7 7
62 63 60 60 56 43 37 35 43 51 55 46 42 50 67 67 67 60 51 45 40 36 31 26 26 24 25 26 26 25 22 17 16 16 16 14 13 12 11 11 9 8 9 9
44 46 50 49 40 40 43 29 24 38 43 42 43 60 69 66 61 54 50 48 45 41 33 30 29 29 29 32 33 30 26 24 24 23 22 20 19 18 17 16 14 13 13 13
29 35 37 34 35 42 49 48 33 24 30 40 37 55 68 65 59 54 52 54 45 34 27 31 33 32 34 35 34 34 34 32 30 28 25 24 23 22 21 19 18 17 16 17
23 26 32 35 35 40 49 55 60 53 35 46 49 53 59 60 57 55 58 57 45 41 39 40 38 36 36 34 34 36 36 36 33 31 29 27 26 25 24 23 21 20 19 19
29 26 27 33 36 27 36 49 56 55 49 48 52 51 51 52 57 59 58 55 44 46 46 45 43 41 38 36 35 36 36 36 34 32 29 28 27 26 25 23 20 20 20 21
39 39 37 33 33 27 31 42 52 57 51 50 57 52 53 54 55 59 62 56 54 52 51 49 46 44 40 36 36 35 34 33 31 29 28 27 26 25 23 21 21 21 22 23
47 43 39 34 34 28 29 33 51 56 45 44 48 50 48 50 56 60 60 57 54 51 52 50 46 42 39 38 36 33 30 29 28 26 26 26 24 22 20 21 22 23 24 24
37 32 30 29 25 21 23 34 50 58 47 43 48 56 59 55 53 52 55 56 55 50 46 45 41 39 39 35 30 27 25 24 24 24 22 21 19 19 20 22 24 24 23 23
28 26 25 24 21 18 19 33 45 51 46 41 45 47 44 42 41 44 46 47 44 40 36 32 32 33 29 25 24 22 21 20 19 18 18 18 20 21 23 23 21 21 22 25
28 25 22 19 18 14 13 23 36 42 38 32 29 31 33 33 34 34 33 31 28 27 28 27 24 22 22 21 18 16 15 16 17 17 18 20 21 20 19 18 19 22 23 25
Wind_Direction_850mb
253 253 220 255 254 206 204 218 196 268 222 267 281 292 295 301 302 318 350 354 350 351 349 1 3 6 7 5 4 2 3 356 345 332 281 234 225 232 230 245 240 231 262 252
284 255 246 256 253 226 224 241 252 257 276 274 280 282 265 283 296 311 351 354 352 353 349 4 6 12 15 11 16 17 18 19 10 354 338 254 215 232 186 188 233 213 222 236
265 348 313 289 238 173 186 210 160 172 232 293 283 262 262 298 288 309 349 355 352 357 357 3 14 16 24 23 28 35 42 48 48 44 51 90 116 127 133 159 161 151 150 161
267 358 294 248 190 178 196 215 211 267 265 235 249 281 286 286 283 297 340 357 348 4 13 6 15 26 32 33 42 49 58 64 72 79 89 101 116 124 131 138 136 126 125 128
233 220 299 288 178 159 175 279 206 220 251 270 277 292 294 236 226 284 337 359 352 6 14 13 16 22 36 43 48 54 61 72 80 89 94 100 105 111 116 122 117 111 109 110
83 179 243 254 234 147 123 291 202 189 231 202 161 29 260 203 185 232 328 2 358 7 15 20 23 30 39 45 54 56 61 70 82 89 98 102 106 108 108 107 104 103 99 96
215 247 279 253 236 152 87 245 173 196 211 178 191 211 217 212 195 206 297 347 1 7 18 28 32 32 44 52 59 64 67 71 77 86 90 92 96 98 98 98 97 97 102 101
139 206 274 189 113 176 224 230 222 212 220 216 232 227 224 227 211 210 251 326 358 6 15 25 33 40 47 55 67 73 73 79 79 77 84 93 93 94 95 98 101 100 99 101
187 215 242 196 218 225 214 231 253 256 262 244 237 233 230 233 220 215 238 282 341 360 9 21 32 41 52 61 68 75 81 78 79 83 82 83 89 97 99 98 96 97 96 93
85 250 243 251 248 252 252 253 259 267 267 250 244 243 234 235 229 217 232 257 310 339 6 14 30 45 52 64 68 64 63 66 75 80 84 88 86 87 87 83 84 88 87 84
261 275 275 264 256 268 273 268 264 265 260 254 249 242 234 230 231 221 225 243 268 313 343 14 36 46 53 59 64 74 81 86 96 93 88 89 90 86 85 85 84 85 84 78
248 261 248 263 278 278 277 282 273 261 258 252 241 241 233 228 226 220 226 231 239 246 269 2 29 42 46 52 59 62 60 64 68 74 85 84 79 79 73 68 65 65 68 64
247 262 268 272 276 280 274 275 273 264 270 253 238 234 227 228 224 218 222 233 232 225 226 219 61 68 61 56 57 55 52 57 53 52 57 67 75 73 69 69 67 64 59 58
262 261 268 266 266 278 273 277 267 260 252 239 236 227 229 224 220 219 221 222 224 220 220 218 232 155 91 75 81 86 75 66 60 53 49 47 45 46 47 44 39 35 32 29
262 260 263 270 272 273 269 265 260 252 239 237 234 219 226 223 222 221 211 219 223 221 221 219 223 225 199 147 67 53 48 44 39 36 32 29 29 33 35 38 39 38 31 19
281 275 271 265 270 271 267 254 248 246 241 241 235 223 218 221 224 224 218 224 228 228 228 224 224 230 235 242 270 304 293 302 340 351 346 344 343 360 20 30 30 21 14 15
275 277 271 266 270 271 265 263 250 242 239 239 240 230 216 215 216 221 221 225 228 226 233 232 228 236 241 247 253 256 261 268 277 281 276 282 291 304 329 338 340 333 336 347
276 277 276 280 279 270 266 267 242 229 231 238 241 226 210 213 215 217 219 224 229 232 236 238 240 243 244 245 247 250 258 268 279 284 285 283 285 290 293 293 294 296 310 318
275 270 285 281 269 250 245 253 243 230 226 229 232 212 209 216 219 219 221 227 232 237 236 240 245 247 249 250 254 259 264 269 271 274 276 280 282 281 280 281 285 290 292 290
284 281 284 282 266 246 234 229 230 229 228 223 218 212 213 217 219 221 224 230 237 247 248 245 247 251 254 257 261 262 261 260 263 264 266 269 271 271 274 275 275 273 276 279
315 310 304 283 284 249 239 231 231 234 235 222 215 215 218 219 221 223 226 232 233 237 239 243 249 252 255 258 260 259 258 257 259 262 265 268 270 270 269 267 267 269 270 273
317 319 319 306 302 258 236 231 223 222 224 222 216 217 220 223 223 227 232 239 243 242 243 245 248 251 253 254 254 254 253 253 255 258 261 263 264 263 263 263 263 266 271 273
312 314 312 310 300 268 230 226 213 211 218 216 213 217 221 225 227 228 232 235 238 242 245 246 246 248 250 251 250 249 248 251 254 256 259 261 260 259 258 260 266 272 273 273
307 304 304 307 308 276 246 230 215 209 216 213 213 217 223 225 226 229 232 235 239 240 245 247 247 246 245 245 244 245 248 250 253 255 254 254 255 258 261 264 267 268 270 269
310 307 308 311 312 290 254 218 211 209 212 214 210 210 215 219 224 230 235 238 239 240 241 241 240 240 239 238 238 241 243 245 247 249 253 255 254 255 258 263 267 270 270 268
320 318 314 311 309 299 269 221 208 207 211 213 214 215 218 223 227 230 232 232 233 235 236 239 235 232 228 227 227 230 235 242 249 250 246 244 248 256 263 270 271 267 263 264
331 328 324 320 318 305 268 218 202 202 204 209 217 218 218 219 221 222 224 225 226 224 221 218 213 208 206 207 210 216 223 227 228 232 239 250 261 269 270 264 259 261 266 272